This is the latest recevied weather packets stored in our database for station/object KB7KFC-3. If no packets are shown the sender has not sent any weather packets the latest 10 day(s).
| Time | Temp. | Humidity | Pressure | Rain* | Wind** | Luminosity | Snow |
|---|---|---|---|---|---|---|---|
| 1777755486 | 33.33° C | 12% | 1011.9 hPa | 0 mm | - | - | - |
| 1777755306 | 33.33° C | 15% | 1012 hPa | 0 mm | - | - | - |
| 1777755125 | 33.33° C | 16% | 1012 hPa | 0 mm | - | - | - |
| 1777754946 | 32.78° C | 11% | 1012 hPa | 0 mm | - | - | - |
| 1777754765 | 33.33° C | 11% | 1012.1 hPa | 0 mm | - | - | - |
| 1777754585 | 33.89° C | 12% | 1012.2 hPa | 0 mm | - | - | - |
| 1777754404 | 33.89° C | 13% | 1012.2 hPa | 0 mm | - | - | - |
| 1777754224 | 33.89° C | 13% | 1012.3 hPa | 0 mm | - | - | - |
| 1777754045 | 33.89° C | 13% | 1012.2 hPa | 0 mm | - | - | - |
| 1777753866 | 33.33° C | 17% | 1012.3 hPa | 0 mm | - | - | - |
| 1777753685 | 33.33° C | 14% | 1012.4 hPa | 0 mm | - | - | - |
| 1777753504 | 33.33° C | 14% | 1012.5 hPa | 0 mm | - | - | - |
| 1777753325 | 32.78° C | 17% | 1012.4 hPa | 0 mm | - | - | - |
| 1777753145 | 33.33° C | 17% | 1012.4 hPa | 0 mm | - | - | - |
| 1777752964 | 32.78° C | 16% | 1012.5 hPa | 0 mm | - | - | - |
| 1777752785 | 33.33° C | 14% | 1012.6 hPa | 0 mm | - | - | - |
| 1777752605 | 33.33° C | 15% | 1012.6 hPa | 0 mm | - | - | - |
| 1777752426 | 33.33° C | 14% | 1012.6 hPa | 0 mm | - | - | - |
| 1777752245 | 33.33° C | 15% | 1012.8 hPa | 0 mm | - | - | - |
| 1777752065 | 33.33° C | 16% | 1012.8 hPa | 0 mm | - | - | - |
| 1777751884 | 32.78° C | 15% | 1012.8 hPa | 0 mm | - | - | - |
| 1777751704 | 32.78° C | 17% | 1012.9 hPa | 0 mm | - | - | - |
| 1777751525 | 32.78° C | 14% | 1012.9 hPa | 0 mm | - | - | - |
| 1777751344 | 32.78° C | 15% | 1013 hPa | 0 mm | - | - | - |
| 1777751165 | 32.78° C | 15% | 1013 hPa | 0 mm | - | - | - |
* Rain latest hour (hover to see other rain measurements)
** Current wind speed in m/s (hover to see current wind gust speed)